ICO G1

Last updated on Sun Jun 21 2026 00:03:04 GMT+0000 (Coordinated Universal Time)

1 32763U 08016A 26171.34056133 -.00000179 00000+0 00000+0 0 9994 2 32763 5.5298 36.1240 0002250 41.2164 220.9677 1.00272667 66573
UTC large
Height (km)
Speed (km/s)
/
Latitude / Longitude
Inclination (degrees)
Orbital Period (minutes)
Azimuth
Elevation
Range (km)
Doppler Factor

Next 0 passes for location: London (51.5072 / 0.1276)

No passes found over London.
ICO G1